[[{"header":{"parameterUnit":"m.s-1","parameterCategory":2,"la1":30.2992,"la2":30.254,"lo1":-89.0895,"lo2":-89.0443,"dy":0.0025,"dx":0.0025,"nx":19,"ny":19,"refTime":"2026-03-10T03:00:00:Z","depth":"0","parameterNumber":2,"parameterNumberName":"U-component_of_CURRENTS"},"data":[0,0,0,0.2401,0.2401,0.2361,0.2361,0.2374,0.2375,0,0,0,0,0,0,0,0,0,0,0,0.2411,0.2411,0.2401,0.2401,0.2362,0.2361,0.2374,0.2375,0,0,0,0,0,0,0,0,0,0,0,0.2411,0.2411,0.2411,0.2401,0.2362,0.2361,0.2374,0.2383,0,0,0,0,0,0,0,0,0,0,0.2411,0.2434,0.2411,0.2411,0.24,0.2362,0.2361,0.2383,0.2383,0.2416,0,0.2419,0,0.241,0.2379,0.2379,0,0,0,0.2382,0.2434,0.2413,0.2411,0.24,0.2362,0.2374,0.2382,0.2382,0.2416,0.2419,0.2419,0.241,0.2379,0.2379,0.2605,0.2607,0,0,0.2384,0.2413,0.2413,0.2414,0.2405,0.2375,0.2373,0.2381,0.2396,0.2419,0.2419,0.241,0.2379,0.238,0.2603,0.2605,0,0,0,0.2403,0.2415,0.2392,0.2414,0.2408,0.2375,0.2372,0.2395,0.2385,0.2419,0.241,0.238,0.2381,0.2601,0.2604,0.2698,0,0,0,0.2403,0.2427,0.2393,0.2411,0.2408,0.2397,0.2386,0.2383,0.2384,0.241,0.238,0.2381,0.2598,0.2602,0.2691,0.2723,0,0,0,0.241,0.2428,0.2424,0.2413,0.2403,0.2396,0.2386,0.2382,0.238,0.2379,0.2381,0.2597,0.2602,0.2684,0.2713,0.2778,0,0,0,0.2438,0.2494,0.2426,0.2477,0.2404,0.2465,0.2385,0.2437,0.2452,0.238,0.2599,0.2604,0.2682,0.2707,0.2772,0.2721,0.2745,0,0,0.2532,0.2506,0.2533,0.2471,0.2531,0.2467,0.2573,0.2553,0.2537,0.2591,0.2596,0.2693,0.2712,0.2776,0.2998,0.3013,0,0,0,0.2577,0.2598,0.2607,0.261,0.2617,0.2651,0.264,0.2658,0.2717,0.2569,0.2765,0.2775,0.2811,0.2771,0.2785,0.2597,0.2626,0.2625,0.2625,0.2734,0.2697,0.2747,0.2726,0.2766,0.2801,0.285,0.2884,0.2844,0.2917,0.2906,0.3093,0.3056,0.3065,0.2874,0.2972,0.2973,0.2973,0.2973,0.2836,0.2822,0.282,0.2853,0.2873,0.2952,0.3038,0.3044,0.3144,0.3081,0.3111,0.294,0.3085,0.2876,0.2981,0.2979,0.2978,0.2978,0.2977,0.2857,0.2846,0.2863,0.289,0.2965,0.302,0.3127,0.3189,0.323,0.3288,0.3221,0.3218,0.2982,0.3298,0.3298,0.3299,0.3299,0.33,0.33,0.2837,0.2858,0.2891,0.2929,0.2965,0.3043,0.3179,0.326,0.3338,0.3337,0.3336,0.3048,0.3191,0.3118,0.3307,0.3306,0.3305,0.3304,0.3304,0.2849,0.2843,0.2891,0.293,0.3005,0.3039,0.318,0.3304,0.34,0.3429,0.3155,0.3358,0.3314,0.3301,0.3233,0.3442,0.3442,0.3442,0.3442,0.2851,0.2852,0.291,0.2961,0.3015,0.305,0.3089,0.3161,0.3171,0.3099,0.3108,0.2994,0.2996,0.2926,0.2922,0.2843,0.2948,0.2947,0.2946,0.2898,0.2897,0.2943,0.2956,0.3013,0.3028,0.2956,0.2838,0.2844,0.2907,0.2862,0.2883,0.2694,0.2713,0.258,0.2589,0.2452,0,0]},{"header":{"parameterUnit":"m.s-1","parameterCategory":2,"la1":30.2992,"la2":30.254,"lo1":-89.0895,"lo2":-89.0443,"dy":0.0025,"dx":0.0025,"nx":19,"ny":19,"refTime":"2026-03-10T03:00:00:Z","depth":"0","parameterNumber":3,"parameterNumberName":"V-component_of_CURRENTS"},"data":[0,0,0,0.0433,0.0433,0.0446,0.0446,0.0463,0.0463,0,0,0,0,0,0,0,0,0,0,0,0.0417,0.0417,0.0433,0.0434,0.0446,0.0446,0.0463,0.0463,0,0,0,0,0,0,0,0,0,0,0,0.0417,0.0417,0.0417,0.0434,0.0446,0.0446,0.0462,0.045,0,0,0,0,0,0,0,0,0,0,0.0436,0.0427,0.0417,0.0417,0.0434,0.0446,0.0446,0.0449,0.045,0.0462,0,0.0465,0,0.0476,0.0465,0.0465,0,0,0,0.042,0.0425,0.0433,0.0417,0.0434,0.0446,0.0436,0.045,0.0451,0.0464,0.0466,0.0467,0.0477,0.0466,0.0466,0.0621,0.0623,0,0,0.0419,0.0415,0.0432,0.0435,0.044,0.0436,0.0437,0.045,0.0451,0.0466,0.0467,0.0477,0.0466,0.0466,0.062,0.0622,0,0,0,0.0426,0.0414,0.0421,0.0433,0.0442,0.0437,0.0438,0.045,0.0454,0.0467,0.0477,0.0466,0.0466,0.0618,0.0621,0.0725,0,0,0,0.0425,0.042,0.0421,0.0418,0.0442,0.0448,0.0437,0.0452,0.0455,0.0477,0.0466,0.0467,0.0617,0.062,0.0719,0.0757,0,0,0,0.0416,0.0419,0.0422,0.0418,0.0432,0.0448,0.0451,0.0452,0.0462,0.0466,0.0467,0.0616,0.0619,0.0713,0.0748,0.0798,0,0,0,0.0409,0.0452,0.0422,0.0474,0.0432,0.0514,0.0451,0.0502,0.0516,0.0466,0.0617,0.062,0.0711,0.0743,0.0793,0.0841,0.0869,0,0,0.047,0.0458,0.0493,0.0469,0.0561,0.0511,0.062,0.0601,0.0572,0.0606,0.0609,0.0721,0.0748,0.0797,0.1038,0.106,0,0,0,0.0519,0.0545,0.057,0.0606,0.064,0.0692,0.0682,0.069,0.0727,0.0598,0.0761,0.0775,0.0802,0.0822,0.0841,0.0706,0.0636,0.0636,0.0636,0.0593,0.0614,0.069,0.0731,0.0776,0.0826,0.087,0.0883,0.0836,0.0885,0.0891,0.1041,0.1068,0.1082,0.0944,0.0929,0.0929,0.093,0.093,0.0705,0.0743,0.0776,0.0855,0.0899,0.0974,0.1043,0.1037,0.1104,0.104,0.1061,0.097,0.1108,0.0953,0.0937,0.0936,0.0935,0.0934,0.0934,0.075,0.077,0.0816,0.0912,0.0998,0.1056,0.117,0.1197,0.1193,0.1238,0.1226,0.1224,0.1056,0.1239,0.124,0.124,0.1241,0.1241,0.1241,0.0756,0.081,0.0878,0.0972,0.1027,0.1125,0.1245,0.1312,0.1367,0.1351,0.1351,0.1116,0.1134,0.1086,0.1248,0.1247,0.1246,0.1245,0.1245,0.0793,0.0806,0.0907,0.0972,0.1123,0.1264,0.136,0.1515,0.1551,0.1587,0.1319,0.1406,0.1368,0.1353,0.131,0.152,0.152,0.152,0.1521,0.0789,0.0814,0.0931,0.1043,0.1192,0.1331,0.1576,0.1705,0.1594,0.1475,0.1355,0.1281,0.1276,0.1225,0.1213,0.1165,0.1333,0.1332,0.1332,0.0801,0.0832,0.0914,0.104,0.1219,0.1423,0.1681,0.1872,0.1604,0.1305,0.1161,0.1169,0.1036,0.1038,0.0933,0.0927,0.0837,0,0]}],[{"header":{"parameterUnit":"m.s-1","parameterCategory":2,"la1":30.2992,"la2":30.254,"lo1":-89.0895,"lo2":-89.0443,"dy":0.0025,"dx":0.0025,"nx":19,"ny":19,"refTime":"2026-03-10T03:00:00:Z","depth":"2","parameterNumber":2,"parameterNumberName":"U-component_of_CURRENTS"},"data":[0,0,0,0.172,0.1721,0.1771,0.1771,0.1823,0.1823,0,0,0,0,0,0,0,0,0,0,0,0.1725,0.1727,0.172,0.1722,0.1771,0.1771,0.1823,0.1823,0,0,0,0,0,0,0,0,0,0,0,0.1725,0.1726,0.1728,0.1722,0.1771,0.1771,0.1822,0.1784,0,0,0,0,0,0,0,0,0,0,0.1736,0.1746,0.1726,0.1728,0.1722,0.1771,0.1771,0.1783,0.1787,0.1801,0,0.1841,0,0.1831,0.1828,0.1828,0,0,0,0.1707,0.1743,0.1759,0.1728,0.1723,0.1771,0.1745,0.1785,0.179,0.1807,0.1842,0.1843,0.1832,0.1828,0.1829,0.2015,0.2016,0,0,0.1704,0.1723,0.1756,0.1763,0.1778,0.1743,0.1747,0.1788,0.181,0.1842,0.1844,0.1833,0.1829,0.1829,0.2013,0.2015,0,0,0,0.1706,0.1722,0.1736,0.1761,0.177,0.1745,0.1749,0.1807,0.1815,0.1844,0.1834,0.1829,0.183,0.2012,0.2014,0.206,0,0,0,0.1704,0.1723,0.1736,0.1746,0.1771,0.179,0.1768,0.1813,0.1816,0.1833,0.1829,0.1831,0.201,0.2013,0.2055,0.2058,0,0,0,0.1715,0.1723,0.1743,0.1747,0.1772,0.1789,0.1798,0.1813,0.181,0.1828,0.1831,0.2009,0.2012,0.2051,0.2052,0.2135,0,0,0,0.171,0.1751,0.1745,0.1797,0.1772,0.1835,0.1797,0.1846,0.1871,0.1829,0.201,0.2014,0.205,0.2048,0.213,0.1998,0.2008,0,0,0.1747,0.1757,0.1786,0.178,0.1844,0.1825,0.1904,0.192,0.1933,0.1988,0.1993,0.2057,0.2052,0.2134,0.2209,0.2212,0,0,0,0.1786,0.1819,0.1839,0.188,0.1911,0.1934,0.1957,0.1993,0.2065,0.1968,0.2119,0.2115,0.2164,0.2078,0.2082,0.2031,0.2031,0.203,0.203,0.1819,0.1846,0.1892,0.1928,0.1984,0.2036,0.2082,0.2144,0.2141,0.2206,0.2199,0.2354,0.2265,0.2266,0.2262,0.2263,0.2263,0.2263,0.2263,0.1797,0.182,0.1895,0.1957,0.2026,0.2109,0.2201,0.2228,0.2347,0.231,0.2357,0.2188,0.2272,0.2268,0.2267,0.2266,0.2266,0.2266,0.2265,0.1775,0.1793,0.1856,0.1933,0.2046,0.2126,0.2219,0.2307,0.2394,0.2448,0.2384,0.2381,0.235,0.2492,0.2493,0.2493,0.2493,0.2494,0.2494,0.1698,0.1765,0.1831,0.1911,0.1969,0.2068,0.2219,0.2296,0.2399,0.2433,0.2432,0.2432,0.2424,0.2367,0.25,0.2499,0.2498,0.2498,0.2497,0.1653,0.1738,0.176,0.1819,0.1917,0.1933,0.2071,0.2211,0.2344,0.2375,0.2432,0.2432,0.2404,0.2399,0.2343,0.2463,0.2463,0.2463,0.2463,0.163,0.167,0.1709,0.1756,0.1812,0.1878,0.1877,0.1953,0.2154,0.2208,0.2219,0.2113,0.212,0.207,0.2073,0.2007,0.2041,0.204,0.2039,0.1573,0.1589,0.1594,0.1702,0.1755,0.182,0.1726,0.1646,0.1809,0.2022,0.2137,0.2436,0.2305,0.2306,0.2247,0.2245,0.2147,0,0]},{"header":{"parameterUnit":"m.s-1","parameterCategory":2,"la1":30.2992,"la2":30.254,"lo1":-89.0895,"lo2":-89.0443,"dy":0.0025,"dx":0.0025,"nx":19,"ny":19,"refTime":"2026-03-10T03:00:00:Z","depth":"2","parameterNumber":3,"parameterNumberName":"V-component_of_CURRENTS"},"data":[0,0,0,0.0119,0.0119,0.0142,0.0142,0.0162,0.0162,0,0,0,0,0,0,0,0,0,0,0,0.0109,0.011,0.0118,0.0119,0.0142,0.0142,0.0162,0.0162,0,0,0,0,0,0,0,0,0,0,0,0.0109,0.011,0.011,0.0119,0.0142,0.0142,0.0162,0.0145,0,0,0,0,0,0,0,0,0,0,0.0123,0.0106,0.011,0.011,0.012,0.0142,0.0142,0.0144,0.0146,0.0151,0,0.0161,0,0.0166,0.0164,0.0164,0,0,0,0.0112,0.0105,0.0126,0.011,0.012,0.0142,0.013,0.0145,0.0147,0.0154,0.0161,0.0162,0.0166,0.0164,0.0164,0.0222,0.0222,0,0,0.0111,0.0098,0.0124,0.0127,0.0134,0.0129,0.0131,0.0147,0.0143,0.0161,0.0162,0.0167,0.0164,0.0164,0.0221,0.0222,0,0,0,0.0112,0.0097,0.0117,0.0126,0.0134,0.013,0.0132,0.0142,0.0153,0.0162,0.0167,0.0164,0.0165,0.0221,0.0222,0.0282,0,0,0,0.0111,0.0099,0.0117,0.0107,0.0134,0.0136,0.0126,0.0152,0.0154,0.0167,0.0164,0.0165,0.0221,0.0221,0.0279,0.0316,0,0,0,0.0107,0.0098,0.0106,0.0107,0.0122,0.0137,0.0148,0.0152,0.0157,0.0164,0.0165,0.022,0.0221,0.0277,0.0312,0.0384,0,0,0,0.0085,0.0108,0.0106,0.0138,0.0122,0.0165,0.0147,0.0169,0.0178,0.0165,0.0221,0.0222,0.0276,0.0309,0.038,0.0417,0.0436,0,0,0.0107,0.011,0.0134,0.0133,0.0193,0.0161,0.021,0.021,0.0195,0.0212,0.0213,0.028,0.0311,0.0383,0.0476,0.0493,0,0,0,0.0137,0.0157,0.0173,0.0208,0.0229,0.0245,0.024,0.0246,0.0266,0.0207,0.0284,0.0302,0.0346,0.036,0.0374,0.0226,0.0226,0.0226,0.0226,0.0145,0.0182,0.0231,0.0273,0.0295,0.031,0.033,0.0336,0.0309,0.033,0.0354,0.0453,0.0469,0.048,0.0351,0.0351,0.0351,0.0351,0.0352,0.02,0.0247,0.0282,0.0342,0.0367,0.0404,0.0429,0.0421,0.0473,0.0418,0.0458,0.0426,0.0499,0.0357,0.0356,0.0355,0.0354,0.0354,0.0354,0.0226,0.0258,0.0287,0.0377,0.0439,0.0467,0.0571,0.0557,0.0545,0.0577,0.0605,0.0603,0.0505,0.0602,0.0603,0.0603,0.0604,0.0604,0.0604,0.0246,0.0281,0.0347,0.0421,0.0491,0.0587,0.0653,0.0705,0.0719,0.0688,0.0688,0.0539,0.053,0.0521,0.0612,0.061,0.0609,0.0609,0.0608,0.0311,0.0318,0.0422,0.049,0.0652,0.082,0.0843,0.0936,0.0939,0.0956,0.0757,0.0751,0.0743,0.0731,0.0726,0.0865,0.0865,0.0865,0.0865,0.0351,0.0363,0.0517,0.0645,0.0815,0.0938,0.1146,0.1124,0.1022,0.0917,0.0914,0.085,0.0839,0.0831,0.0816,0.0811,0.0973,0.0973,0.0973,0.0402,0.0446,0.0573,0.0703,0.0904,0.1111,0.1302,0.1239,0.1016,0.0974,0.0902,0.0878,0.0773,0.076,0.0733,0.0716,0.0701,0,0]}],[{"header":{"parameterUnit":"m.s-1","parameterCategory":2,"la1":30.2992,"la2":30.254,"lo1":-89.0895,"lo2":-89.0443,"dy":0.0025,"dx":0.0025,"nx":19,"ny":19,"refTime":"2026-03-10T03:00:00:Z","depth":"4","parameterNumber":2,"parameterNumberName":"U-component_of_CURRENTS"},"data":[0,0,0,0.0944,0.0947,0.1071,0.1071,0.1196,0.1197,0,0,0,0,0,0,0,0,0,0,0,0.0899,0.09,0.0944,0.0948,0.1071,0.1071,0.1196,0.1197,0,0,0,0,0,0,0,0,0,0,0,0.0899,0.09,0.0901,0.0948,0.107,0.1071,0.1195,0.1108,0,0,0,0,0,0,0,0,0,0,0.0992,0.0956,0.09,0.0902,0.0949,0.107,0.1071,0.1104,0.1114,0.1134,0,0.1163,0,0.119,0.1206,0.1206,0,0,0,0.0938,0.0949,0.0987,0.0902,0.095,0.107,0.1012,0.111,0.112,0.1146,0.1165,0.1171,0.1192,0.1206,0.1207,0.1335,0.1335,0,0,0.0931,0.0915,0.098,0.0994,0.0996,0.1008,0.1016,0.1116,0.113,0.1166,0.1174,0.1194,0.1207,0.1208,0.1335,0.1335,0,0,0,0.0918,0.091,0.0947,0.0988,0.1017,0.1012,0.1021,0.1125,0.1139,0.1175,0.1195,0.1208,0.121,0.1334,0.1335,0.1355,0,0,0,0.0914,0.0904,0.0944,0.0934,0.1016,0.1077,0.1027,0.1132,0.1144,0.1194,0.1208,0.1211,0.1334,0.1334,0.1354,0.1353,0,0,0,0.0891,0.0901,0.0921,0.0933,0.0992,0.1076,0.1096,0.1135,0.1157,0.1206,0.1211,0.1333,0.1334,0.1352,0.1351,0.1392,0,0,0,0.0862,0.0883,0.0921,0.0961,0.0991,0.1066,0.1096,0.116,0.1203,0.1209,0.1334,0.1335,0.1352,0.135,0.139,0.1223,0,0,0,0.0863,0.0883,0.0908,0.0945,0.1015,0.1047,0.1113,0.1184,0.1225,0.1296,0.1299,0.1354,0.1351,0.1392,0.1287,0,0,0,0,0.0892,0.0909,0.0939,0.0997,0.1059,0.1116,0.1175,0.1216,0.1305,0.1259,0.137,0.1368,0.1393,0.1291,0.134,0.134,0.134,0.134,0.1339,0.0846,0.0902,0.0942,0.1013,0.1073,0.1167,0.1221,0.1289,0.1319,0.137,0.1397,0.1456,0.135,0.1415,0.1415,0.1416,0.1416,0.1416,0.1416,0.0823,0.0847,0.0931,0.0988,0.1079,0.115,0.1279,0.1327,0.1427,0.1431,0.1455,0.1334,0.1418,0.1418,0.1417,0.1417,0.1417,0.1417,0.1417,0.0764,0.0787,0.0829,0.092,0.1026,0.115,0.1254,0.136,0.1453,0.1487,0.1402,0.1479,0.1464,0.1514,0.1515,0.1515,0.1515,0.1515,0.1515,0.0687,0.0731,0.0753,0.0859,0.092,0.1055,0.1249,0.1325,0.1439,0.1407,0.1505,0.1489,0.1486,0.147,0.1518,0.1518,0.1517,0.1517,0.1517,0.0642,0.0645,0.0669,0.0707,0.0834,0.0913,0.1118,0.1263,0.1325,0.1348,0.1369,0.1375,0.1355,0.1355,0.1334,0.1343,0.1341,0.1339,0,0.0591,0.0602,0.0605,0.0624,0.0681,0.0824,0.091,0.1049,0.118,0.1135,0.1299,0.1313,0.1319,0.1288,0.1285,0.1254,0,0,0,0.0565,0.0569,0.0549,0.0563,0.0603,0.0754,0.0932,0.0955,0.116,0.1207,0.1289,0.1302,0.1415,0.1527,0.1512,0.1508,0.1482,0,0]},{"header":{"parameterUnit":"m.s-1","parameterCategory":2,"la1":30.2992,"la2":30.254,"lo1":-89.0895,"lo2":-89.0443,"dy":0.0025,"dx":0.0025,"nx":19,"ny":19,"refTime":"2026-03-10T03:00:00:Z","depth":"4","parameterNumber":3,"parameterNumberName":"V-component_of_CURRENTS"},"data":[0,0,0,0.012,0.012,0.014,0.014,0.0148,0.0148,0,0,0,0,0,0,0,0,0,0,0,0.0109,0.0109,0.012,0.012,0.014,0.014,0.0148,0.0148,0,0,0,0,0,0,0,0,0,0,0,0.0109,0.0109,0.0109,0.012,0.014,0.014,0.0148,0.0137,0,0,0,0,0,0,0,0,0,0,0.012,0.011,0.0109,0.0109,0.012,0.014,0.014,0.0137,0.0138,0.0135,0,0.0138,0,0.0146,0.0149,0.0149,0,0,0,0.0118,0.0109,0.0119,0.0109,0.0121,0.014,0.013,0.0137,0.0138,0.0137,0.0138,0.0139,0.0146,0.0149,0.0149,0.014,0.014,0,0,0.0117,0.0108,0.0118,0.012,0.0125,0.013,0.0131,0.0138,0.0136,0.0138,0.0139,0.0146,0.0149,0.0149,0.014,0.014,0,0,0,0.0115,0.0107,0.0117,0.0119,0.0125,0.013,0.0132,0.0135,0.014,0.014,0.0146,0.0149,0.0149,0.014,0.014,0.0169,0,0,0,0.0114,0.0107,0.0117,0.0111,0.0125,0.0132,0.0129,0.014,0.0141,0.0146,0.0149,0.0149,0.014,0.014,0.0169,0.0212,0,0,0,0.0108,0.0106,0.0109,0.0111,0.0121,0.0132,0.0137,0.014,0.0145,0.0149,0.0149,0.014,0.014,0.0168,0.021,0.0242,0,0,0,0.0097,0.0107,0.0109,0.0122,0.0121,0.0135,0.0138,0.0145,0.0148,0.0149,0.014,0.014,0.0168,0.0209,0.0241,0.0274,0,0,0,0.0107,0.0108,0.0117,0.012,0.0148,0.0132,0.0146,0.0151,0.0141,0.0137,0.0137,0.0169,0.021,0.0242,0.0252,0,0,0,0,0.0119,0.0129,0.0135,0.0152,0.0156,0.0171,0.0159,0.0153,0.0153,0.0142,0.0153,0.0179,0.0198,0.0211,0.0138,0.0138,0.0138,0.0138,0.0138,0.0135,0.0146,0.0172,0.0187,0.019,0.0191,0.0196,0.0184,0.0159,0.0157,0.019,0.0221,0.0232,0.0158,0.0159,0.0159,0.0159,0.0159,0.0159,0.0177,0.0201,0.0211,0.024,0.0247,0.0255,0.0246,0.0232,0.0235,0.0201,0.0218,0.0225,0.0161,0.0161,0.0161,0.016,0.016,0.016,0.016,0.0208,0.022,0.024,0.0289,0.0322,0.0322,0.0371,0.0338,0.0291,0.0299,0.0314,0.0254,0.0267,0.0302,0.0302,0.0303,0.0303,0.0303,0.0303,0.0231,0.0252,0.0305,0.0348,0.0395,0.0447,0.0452,0.0453,0.0399,0.0375,0.0318,0.027,0.0265,0.0276,0.0308,0.0307,0.0307,0.0306,0.0306,0.0276,0.0286,0.0368,0.0425,0.0535,0.0573,0.0574,0.0545,0.0543,0.0517,0.041,0.0403,0.0407,0.0399,0.0414,0.0489,0.049,0.0491,0,0.0306,0.0317,0.0436,0.0545,0.0642,0.0659,0.0675,0.065,0.0567,0.0558,0.0542,0.0423,0.0416,0.042,0.0415,0.0433,0,0,0,0.035,0.0376,0.0476,0.0578,0.0696,0.07,0.068,0.0661,0.0576,0.0571,0.0506,0.0502,0.0412,0.0323,0.0313,0.0307,0.0324,0,0]}]]